This is the latest recevied weather packets stored in our database for station/object KN6WGU. If no packets are shown the sender has not sent any weather packets the latest 10 day(s).
| Time | Temp. | Humidity | Pressure | Rain* | Wind** | Luminosity | Snow |
|---|---|---|---|---|---|---|---|
| 1777584997 | 11.67° C | 56% | 1007.4 hPa | 0 mm | - | 53 W/m² | - |
| 1777584694 | 11.67° C | 55% | 1007.4 hPa | 0 mm | - | 75 W/m² | - |
| 1777584391 | 11.67° C | 56% | 1007.4 hPa | 0 mm | - | 65 W/m² | - |
| 1777584087 | 11.67° C | 59% | 1007.4 hPa | 0 mm | - | 70 W/m² | - |
| 1777583787 | 11.67° C | 58% | 1007.7 hPa | 0 mm | - | 68 W/m² | - |
| 1777583487 | 11.67° C | 57% | 1007.7 hPa | 0 mm | - | 48 W/m² | - |
| 1777583181 | 11.67° C | 57% | 1007.5 hPa | 0 mm | - | 60 W/m² | - |
| 1777582877 | 11.67° C | 59% | 1007.6 hPa | 0 mm | - | 47 W/m² | - |
| 1777582574 | 11.67° C | 61% | 1007.6 hPa | 0 mm | - | 63 W/m² | - |
| 1777582269 | 12.22° C | 60% | 1007.7 hPa | 0 mm | - | 68 W/m² | - |
| 1777581966 | 12.22° C | 58% | 1007.5 hPa | 0 mm | - | 220 W/m² | - |
| 1777581662 | 12.78° C | 60% | 1007.5 hPa | 0 mm | - | 105 W/m² | - |
| 1777581356 | 12.78° C | 58% | 1007.6 hPa | 0 mm | - | 101 W/m² | - |
| 1777581051 | 12.78° C | 58% | 1007.7 hPa | 0 mm | - | 511 W/m² | - |
| 1777580750 | 12.78° C | 58% | 1007.7 hPa | 0 mm | - | 523 W/m² | - |
| 1777580448 | 13.33° C | 57% | 1007.8 hPa | 0 mm | - | 534 W/m² | - |
| 1777580148 | 13.33° C | 59% | 1007.7 hPa | 0 mm | - | 546 W/m² | - |
| 1777579845 | 13.33° C | 58% | 1007.6 hPa | 0 mm | - | 557 W/m² | - |
| 1777579544 | 13.33° C | 58% | 1007.8 hPa | 0 mm | - | 569 W/m² | - |
| 1777579244 | 13.33° C | 59% | 1007.8 hPa | 0 mm | - | 577 W/m² | - |
| 1777578940 | 13.33° C | 56% | 1007.6 hPa | 0 mm | - | 591 W/m² | - |
| 1777578635 | 12.78° C | 61% | 1007.8 hPa | 0 mm | - | 603 W/m² | - |
| 1777578335 | 13.33° C | 59% | 1007.7 hPa | 0 mm | - | 612 W/m² | - |
| 1777578032 | 12.78° C | 59% | 1007.7 hPa | 0 mm | - | 621 W/m² | - |
| 1777577726 | 13.33° C | 60% | 1007.7 hPa | 0 mm | - | 629 W/m² | - |
* Rain latest hour (hover to see other rain measurements)
** Current wind speed in m/s (hover to see current wind gust speed)